星链-4588 (STARLINK-4588 )

导读

STARLINK-4588是美国太空探索技术公司星链卫星互联网项目中的一颗卫星,于2022年8月28日发射升空。作为星链星座的组成部分,它旨在为全球尤其是偏远地区提供高速互联网接入服务。该卫星采用低轨道部署,依托星链大规模星座组网,助力实现全球覆盖的宽带通信目标,推动卫星互联网基础设施建设。

基本信息
目录编号:
53641
目录名称:
STARLINK-4588
国际标识:
2022-104BF
轨道中心:
EARTH
卫星名称:
星链-4588
卫星全名:
星链-4588 (STARLINK-4588 )
卫星状态:
在轨 (已飞行1389 天)
发射日期:
2022-08-28 UTC
国别 :
美国 (US)
星等 :
--
轨道信息
数据来源 国际轨道数据 AOE轨道数据
星历时间 2026-06-17T10:13:31+0800
7小时前
查看轨道信息
2026-06-17T03:00:00+0800
14小时前
查看轨道信息
半长轴 6917.909km 6917.901km
偏心率 0.0001321 0.0001463
轨道倾角 53.161° 53.161°
近地点辐角 91.924° 77.315°
升交点赤经 137.651° 139.005°
平近点角 268.191° 86.652°
近地点 538.858km 538.751km
远地点 540.686km 540.777km
周期 95.438分钟 95.438分钟
每日圈数 15.088309 15.088335
详细信息
固有亮度:
5
最大亮度:
2.5
卫星平台:
Starlink v1.5
覆盖范围:
全球
运营商:
太空探索技术公司
运营商所在国:
美国
制造商(研发单位):
太空探索技术公司
制造商所在国:
美国
使用方式:
暂无
卫星简介
星链(Starlink)计划是由太空探索技术公司(SpaceX)提出的一个巨型低轨卫星互联网星座项目,计划在2019年至2024年间在太空搭建由约1.2万颗卫星组成的“星链”网络,其中1584颗将部署在地球上空550千米处的近地轨道,并从2020年开始工作。该卫星仍在工作。
2D轨道图
3D轨道图
轨道高度分析图
轨道倾角分析图
轨道综合分析图
查看轨道综合分析图